Location: Newark
(46.7000°N, 60.6000°W)
Time: 13:44:38
(UTC+00:00)

A-11 Canister half - Pass Details

Date: 05 November 2020
Orbit: 1525 x 1684 km, 47.3° (Epoch: 01 December)

Event Time Altitude Azimuth Distance (km) Brightness Sun altitude
Rises 21:30:27 0° 289° (WNW) 4,747 12.6 -9.0°
Reaches altitude 10° 21:33:35 10° 286° (WNW) 3,744 12.1 -9.5°
Maximum altitude 21:42:49 64° 209° (SSW) 1,674 9.4 -11.0°
Drops below altitude 10° 21:51:55 10° 130° (SE) 3,685 10.6 -12.6°
Sets 21:54:59 0° 128° (SE) 4,669 11.1 -13.1°
